Terug naar catalogus

STARLINK-36929

ActiefCommunicatieVLEO
NORAD 68067·PAYLOAD·🇺🇸 United States

Gelanceerd Mar 2, 2026 vanaf Vandenberg Space Force Base

Loading…

Volgende Passages (komende 24 uur)

TLE

VersSource: CelesTrak SupGP

Epoch: Sep 14, 2026, 22:38 UTC

1 68067C 26041AD  26257.94354167  .00037149  00000+0  10974-2 0  2574
2 68067  53.1573 245.8617 0001414  99.9408 263.9746 15.34375800    19

Volg STARLINK-36929 in realtime met AllMySat

Download on the App Store